Location: Flein
(48.6792°N, 10.8614°E)
Time: 18:40:43
(UTC+00:00)

Daily predictions for brighter satellites

Satellite Brightness Start Highest point End
(mag) Time Altitude Azimuth Time Altitude Azimuth Time Altitude Azimuth
STARLINK-1245 4.0 18:22:02 10° WNW 18:24:59 36° N 18:27:54 10° ENE
STARLINK-1238 4.0 18:22:27 10° WNW 18:25:25 37° N 18:28:23 10° ENE
STARLINK-1205 4.0 18:23:23 10° WNW 18:26:21 36° N 18:29:17 10° ENE
STARLINK-1204 4.0 18:23:51 10° WNW 18:26:48 36° N 18:29:44 10° ENE
Cosmos 2251 Rocket 3.6 18:23:33 10° SSW 18:28:54 73° ESE 18:34:17 10° NNE
Cosmos 1758 Rocket 3.7 18:27:37 10° N 18:31:55 55° ENE 18:36:08 10° SSE
Cosmos 1656 Rocket 3.8 18:27:05 10° NNW 18:32:44 61° ENE 18:38:16 10° SE
Cosmos 2074 Rocket 4.1 18:26:39 10° N 18:32:53 61° ENE 18:39:06 10° SSE
Cosmos 2228 3.7 18:32:04 10° SSE 18:35:55 33° E 18:39:50 10° NNE
CZ-2C R/B 3.7 18:34:39 10° NE 18:38:39 22° E 18:42:39 10° SE
Cosmos 1953 Rocket 4.1 18:35:22 10° N 18:39:36 40° ENE 18:43:49 10° SE
ATLAS 2AS CENTAUR R/B 3.0 18:32:03 10° NW 18:39:45 67° NE 18:46:49 10° SE
Cosmos 1726 2.2 18:36:27 10° S 18:40:05 54° E 18:43:46 10° NNE
USA 234 4.4 18:36:18 10° E 18:40:46 19° ESE 18:45:14 10° SSE
STARLINK-1201 4.0 18:38:17 10° WNW 18:41:24 40° N 18:44:31 10° E
Cosmos 1606 Rocket 4.0 18:38:23 10° SSE 18:42:33 42° E 18:46:46 10° NNE
SL-16 R/B 3.9 18:38:07 10° WSW 18:43:23 38° NW 18:48:40 10° NNE
Abrixas rocket 1.9 18:40:28 10° W 18:43:27 88° S 18:46:09 12° E
Ariane Rocket 3.2 18:39:53 10° SSE 18:44:57 79° WSW 18:50:03 10° NNW
IRIDIUM 104 4.3 18:40:08 10° N 18:45:23 78° E 18:50:36 10° S
Cosmos 1461 3.8 18:41:18 10° NNW 18:45:33 40° NE 18:49:29 12° ESE
Meteor 2-10 4.2 18:40:11 10° S 18:45:35 67° E 18:51:13 10° NNE
ARGOS 3.1 18:40:30 10° SSE 18:45:53 78° ENE 18:51:17 10° NNW
STARLINK-1143 4.5 18:43:35 10° WNW 18:47:35 45° N 18:51:35 10° ENE
SeaSat 1 3.1 18:43:04 10° NNE 18:47:57 62° NW 18:52:48 10° SW
CZ-2C R/B 4.2 18:46:51 10° NNE 18:51:18 39° E 18:55:38 10° SSE
Cosmos 1140 Rocket 4.4 18:47:31 10° SSE 18:51:43 25° E 18:55:55 10° NE
STARLINK-1241 4.5 18:48:38 10° WNW 18:52:38 45° N 18:56:38 10° ENE
IRIDIUM 114 4.4 18:49:18 10° N 18:54:33 88° W 18:59:46 10° S
Aureole 1 Rocket 4.4 18:49:34 10° S 18:56:43 47° ESE 19:02:28 10° NE
Cosmos 1437 2.9 18:53:45 10° NNW 18:56:46 69° W 18:59:45 10° S
STARLINK-1239 4.5 18:53:36 10° WNW 18:57:37 45° N 19:01:29 11° ENE
SJ-6B 3.0 18:58:18 10° SSE 19:02:25 86° WSW 19:06:36 10° NNW
STARLINK-1240 4.4 18:58:36 10° WNW 19:02:37 46° N 19:06:16 12° ENE
SL-08 RB Rocket 3.7 19:01:06 10° SSE 19:05:39 86° E 19:10:18 10° NNW
Cosmos 1603 3.9 19:00:17 10° SSW 19:05:54 75° WNW 19:11:33 10° NNE
Cosmos 614 Rocket 4.1 19:01:13 10° S 19:06:16 53° ESE 19:11:21 10° NNE
STARLINK-1216 4.4 19:03:37 10° WNW 19:07:39 46° N 19:11:04 14° ENE
STARLINK-1237 4.4 19:08:36 10° WNW 19:12:38 47° N 19:15:50 15° ENE
SL-24 R/B 3.8 19:08:58 10° NNE 19:13:07 60° E 19:16:51 10° S
Meteor 1-16 Rocket 4.2 19:11:05 10° SSW 19:16:30 84° WNW 19:22:07 10° N
CZ-4C R/B 4.3 19:11:51 10° NW 19:17:06 25° NNE 19:23:05 10° ENE
STARLINK-1202 4.3 19:13:35 10° WNW 19:17:37 48° N 19:20:37 17° ENE
ATLAS 5 CENTAUR R/B 2.0 19:15:02 10° S 19:18:51 36° ESE 19:23:04 10° NE
STARLINK-67 2.2 19:17:40 10° WNW 19:20:15 86° NNE 19:20:58 42° ESE
Resurs 1-3 3.5 19:16:27 13° SSE 19:20:24 76° ENE 19:24:49 10° N
SPOT 3 Rocket 3.6 19:15:31 10° SSE 19:20:44 88° WSW 19:25:59 10° NNW
STARLINK-1228 2.8 19:19:37 10° WNW 19:22:32 66° NNE 19:23:35 34° E
Cosmos 407 Rocket 3.4 19:17:32 10° S 19:22:36 60° ESE 19:27:39 10° NNE
ERBS 3.9 19:20:09 10° NW 19:23:05 27° NNE 19:24:56 17° ENE
STARLINK-1203 4.3 19:20:59 10° WNW 19:25:07 51° N 19:27:47 20° E
Cosmos 2341 Rocket 4.2 19:19:45 10° N 19:26:02 55° ENE 19:30:48 18° SSE
SL-4 R/B 1.4 19:23:00 10° WSW 19:26:24 69° SSE 19:28:17 24° ENE
BREEZE-M DEB (TANK) 1.5 19:22:50 10° WSW 19:27:16 84° SSE 19:28:09 35° E
STARLINK-1246 4.3 19:23:35 10° WNW 19:27:38 50° N 19:30:12 21° ENE
APEX 4.4 19:21:19 10° NNW 19:28:01 82° WSW 19:32:17 18° SSE
ERS-1 Rocket 4.4 19:27:30 19° E 19:29:15 22° ENE 19:33:04 10° N
Cosmos 1340 Rocket 2.8 19:25:54 10° S 19:29:55 64° E 19:33:55 10° NNE
STARLINK-1224 4.2 19:28:34 10° WNW 19:32:38 51° NNE 19:34:58 23° ENE
Cosmos 1300 3.2 19:34:10 33° SE 19:35:00 38° E 19:38:35 10° NNE
Cosmos 1703 4.2 19:31:24 10° NNW 19:35:14 48° W 19:39:04 10° S
Cosmos 2369 Rocket 4.2 19:31:45 10° NW 19:36:16 25° WSW 19:40:45 10° SSW
Cosmos 1818 3.9 19:31:22 10° SW 19:36:48 70° NW 19:42:16 10° NE
STARLINK-1225 4.2 19:33:35 10° WNW 19:37:39 52° NNE 19:39:46 25° ENE
Cosmos 2058 Rocket 3.0 19:35:38 10° S 19:40:08 83° E 19:44:41 10° N
Cosmos 2218 Rocket 4.4 19:36:01 10° N 19:41:58 46° ENE 19:44:56 27° SE
STARLINK-1230 4.1 19:38:33 10° WNW 19:42:38 54° NNE 19:44:32 28° ENE
STARLINK-1233 2.9 19:41:54 10° WNW 19:45:04 72° NNE 19:45:33 57° E
SPOT 1/Viking Rocket 4.3 19:43:15 28° ESE 19:45:05 37° ENE 19:49:52 10° N
STARLINK-1212 2.9 19:42:23 10° WNW 19:45:32 72° NNE 19:45:59 59° E
STARLINK-1105 2.9 19:42:50 10° WNW 19:45:59 73° NNE 19:46:26 59° E
Cosmos 1954 Rocket 4.2 19:41:16 10° S 19:46:17 48° ESE 19:51:18 10° NNE
SPOT 5 4.0 19:45:53 21° ENE 19:46:24 21° ENE 19:49:41 10° NNE
STARLINK-1206 2.8 19:43:18 10° WNW 19:46:26 73° NNE 19:46:50 61° E
STARLINK-1247 2.8 19:43:46 10° WNW 19:46:54 73° NNE 19:47:16 62° ENE
STARLINK-1227 2.8 19:44:10 10° WNW 19:47:18 74° NNE 19:47:42 62° E
STARLINK-1243 4.1 19:43:31 10° WNW 19:47:38 55° NNE 19:49:19 31° ENE
STARLINK-1218 2.8 19:44:40 10° WNW 19:47:48 74° NNE 19:48:09 64° ENE
Resurs 01 Rocket 1.6 19:45:06 23° S 19:47:50 82° WSW 19:52:17 10° NNW
STARLINK-1234 2.6 19:44:48 10° WNW 19:47:51 89° SW 19:48:04 76° ESE
STARLINK-1226 2.8 19:45:06 10° WNW 19:48:14 75° NNE 19:48:34 65° ENE
STARLINK-1254 2.8 19:45:32 10° WNW 19:48:41 75° NNE 19:49:01 65° E
STARLINK-1215 2.8 19:46:01 10° WNW 19:49:10 76° NNE 19:49:27 67° ENE
STARLINK-1231 2.8 19:46:28 10° WNW 19:49:36 76° NNE 19:49:52 68° ENE
STARLINK-1209 2.6 19:46:35 10° WNW 19:49:37 83° SSW 19:49:44 79° SSE
STARLINK-1232 2.7 19:47:23 10° WNW 19:50:30 77° NNE 19:50:45 70° ENE
Cosmos 1908 4.3 19:47:00 10° SSW 19:50:43 45° WNW 19:54:29 10° N
Cosmos 1726 Rocket 4.4 19:46:35 10° SSW 19:50:52 51° WNW 19:55:14 10° N
STARLINK-1217 2.7 19:47:49 10° WNW 19:50:57 78° NNE 19:51:10 71° ENE
Cosmos 1023 Rocket 4.3 19:46:06 10° SSW 19:51:16 80° ESE 19:56:26 10° NNE
STARLINK-1208 2.8 19:48:13 10° WNW 19:51:23 78° NNE 19:51:37 71° ENE
STARLINK-60 2.8 19:48:14 10° SW 19:51:31 71° SSE 19:51:37 70° SE
STARLINK-1229 2.7 19:48:43 10° WNW 19:51:51 79° NNE 19:52:02 74° ENE
STARLINK-1271 2.7 19:49:10 10° WNW 19:52:18 79° NNE 19:52:29 74° ENE
STARLINK-1236 4.0 19:48:31 10° WNW 19:52:38 57° NNE 19:54:06 35° ENE
STARLINK-1270 2.7 19:49:38 10° WNW 19:52:46 79° NNE 19:52:55 76° ENE
STARLINK-1154 2.7 19:50:05 10° WNW 19:53:12 80° NNE 19:53:20 77° ENE
STARLINK-1197 2.7 19:50:58 10° WNW 19:54:06 81° NNE 19:54:12 79° ENE
STARLINK-1189 2.7 19:51:26 10° WNW 19:54:34 81° NNE 19:54:39 80° NE
STARLINK-1198 2.7 19:51:52 10° WNW 19:55:00 82° NNE 19:55:04 81° NE
STARLINK-1188 2.7 19:52:20 10° WNW 19:55:28 82° NNE 19:55:31 82° NE
STARLINK-1235 2.7 19:52:58 10° WNW 19:56:07 82° SSW 19:56:09 82° SSW
STARLINK-1187 2.7 19:53:23 10° WNW 19:56:34 89° SSW 19:56:36 88° SE
MetOp-B 4.1 19:54:04 30° SSE 19:56:46 76° ENE 20:02:09 10° NNW
Cosmos 962 Rocket 4.4 19:50:46 10° N 19:56:58 85° W 20:01:29 19° S
STARLINK-1199 2.8 19:54:16 10° WNW 19:57:25 85° NNE 19:57:25 85° NNE
H-2A R/B 4.2 19:53:25 10° SW 19:57:32 23° W 20:01:36 10° NW
STARLINK-1191 2.8 19:54:42 10° WNW 19:57:51 85° N 19:57:51 85° N
COSMOS 2455 2.8 19:51:52 10° NW 19:57:56 85° WSW 20:00:54 32° SSE
Cosmos 2181 Rocket 4.0 19:54:06 22° SSE 19:58:11 59° E 20:04:15 10° NNE
STARLINK-1210 2.8 19:55:10 10° WNW 19:58:18 85° N 19:58:18 85° N
NOSS 3-4 (A) 4.3 19:51:30 10° NW 19:58:20 57° WSW 20:03:26 21° SSE
NOSS 3-4 (C) 4.3 19:51:36 10° NW 19:58:26 58° WSW 20:03:31 22° SSE
STARLINK-1221 2.8 19:55:37 10° WNW 19:58:43 85° NNW 19:58:43 85° NNW
USA 245 4.4 19:56:06 32° SE 19:58:48 66° ENE 20:05:07 10° N
STARLINK-1219 2.8 19:56:04 10° WNW 19:59:10 85° NNW 19:59:10 85° NNW
STARLINK-1222 2.8 19:56:31 10° WNW 19:59:35 84° NW 19:59:35 84° NW
Terra 3.1 19:59:18 23° ENE 19:59:50 24° ENE 20:03:36 10° N
STARLINK-1211 2.8 19:56:58 10° WNW 20:00:01 83° NW 20:00:01 83° NW
IGS 5A 3.8 20:00:04 44° E 20:00:33 47° ENE 20:04:35 10° N
STARLINK-1214 2.8 19:57:25 10° WNW 20:00:27 82° NW 20:00:27 82° NW
SL-8 Rocket 4.0 19:54:16 10° N 20:00:36 72° E 20:03:55 30° SSE
STARLINK-1245 2.9 19:57:54 10° WNW 20:00:52 79° WNW 20:00:52 79° WNW
STARLINK-1238 2.9 19:58:18 10° WNW 20:01:19 80° WNW 20:01:19 80° WNW
SAR-Lupe-2 3.4 19:58:01 10° NNE 20:01:37 68° ESE 20:01:43 68° ESE
STARLINK-1205 2.9 19:59:15 10° WNW 20:02:11 76° WNW 20:02:11 76° WNW
STARLINK-1269 3.9 19:58:29 10° WNW 20:02:37 62° NNE 20:03:39 44° ENE
STARLINK-1204 2.9 19:59:42 10° WNW 20:02:36 75° WNW 20:02:36 75° WNW
STARLINK-1200 3.8 20:03:28 10° WNW 20:07:36 64° NNE 20:08:26 50° ENE
Cosmos 921 Rocket 3.5 20:03:47 10° NNW 20:07:52 54° WSW 20:09:27 33° SSW
Cosmos 1763 Rocket 4.0 20:03:59 10° NNW 20:08:58 43° ENE 20:10:00 39° E
MOS 1 Rocket 4.1 20:06:19 10° N 20:11:36 62° WNW 20:16:58 10° SSW
MINOTAUR IV R/B 4.4 20:09:14 23° SSW 20:12:00 77° ESE 20:16:31 10° NNE
STARLINK-1192 3.7 20:08:27 10° WNW 20:12:36 67° NNE 20:13:14 56° ENE
Cosmos 2366 rocket 3.9 20:06:41 10° N 20:12:50 71° ENE 20:15:14 39° SSE
Cosmos 1812 Rocket 3.6 20:13:16 54° E 20:13:16 54° E 20:17:24 10° NNE
ATLAS CENTAUR R/B 3.3 20:10:35 10° NNW 20:13:19 18° NNE 20:14:05 17° NE
BREEZE M DEB (TANK) 2.9 20:06:16 10° WSW 20:13:44 67° SSE 20:14:02 64° SE
STARLINK-1244 3.6 20:13:25 10° WNW 20:17:34 70° NNE 20:18:00 63° ENE
STARLINK-1201 3.6 20:14:34 10° WNW 20:17:12 53° W 20:17:12 53° W
Cosmos 1697 Rocket 3.7 20:13:16 10° NNW 20:18:20 32° NE 20:19:44 28° ENE
Cosmos 1174 4.2 20:14:31 10° NNW 20:18:31 61° NE 20:19:01 56° E
Abrixas rocket 3.7 20:16:05 10° W 20:17:44 28° W 20:17:44 28° W
CZ-2C R/B 3.1 20:14:15 10° N 20:19:19 57° WNW 20:24:24 10° SSW
Cosmos 1959 Rocket 4.4 20:14:06 10° N 20:20:28 82° E 20:23:00 39° SSE
STARLINK-1138 3.6 20:18:24 10° WNW 20:22:34 73° NNE 20:22:47 71° NE
USA 32 4.4 20:17:51 10° N 20:22:53 45° ENE 20:23:10 44° E
Cosmos 1461 4.3 20:20:30 10° NW 20:24:39 35° WSW 20:25:53 30° SSW
USA 234 3.1 20:18:09 10° ENE 20:24:40 64° SE 20:31:09 10° SW
Iridium 2 3.7 20:24:56 80° W 20:24:56 80° W 20:28:45 10° N
STARLINK-1143 3.6 20:23:22 10° WNW 20:27:32 77° NNE 20:27:33 77° NNE
Cosmos 220 Rocket 3.8 20:23:24 10° NNW 20:27:45 86° WSW 20:27:59 79° S
Iridium 4 Rocket 2.8 20:23:37 10° N 20:27:49 81° ENE 20:27:49 81° ENE
Cosmos 1408 4.0 20:25:00 10° N 20:27:11 29° NNE 20:27:11 29° NNE
ATLAS 2AS CENTAUR R/B 3.9 20:23:39 10° NW 20:30:18 35° WSW 20:34:22 20° SSW
STARLINK-1241 3.6 20:28:23 10° WNW 20:32:22 78° NNW 20:32:22 78° NNW
Cosmos 1140 Rocket 4.3 20:28:10 10° SW 20:33:13 50° WNW 20:38:16 10° NNE
Cosmos 1850 Rocket 4.4 20:36:21 46° ENE 20:36:21 46° ENE 20:40:25 10° NNE
Spot 2 Rocket 3.9 20:34:18 40° SSW 20:35:58 60° WSW 20:41:03 10° NNW
STARLINK-1239 3.7 20:33:20 10° WNW 20:37:07 72° NW 20:37:07 72° NW
Cosmos 2151 3.7 20:37:50 10° N 20:41:02 43° NNE 20:41:02 43° NNE
STARLINK-1240 3.9 20:38:19 10° WNW 20:41:55 65° WNW 20:41:55 65° WNW
Cosmos 1455 4.1 20:46:57 22° NNE 20:46:57 22° NNE 20:48:29 10° NNE
Cosmos 841 Rocket 3.9 20:40:13 10° NNW 20:45:22 49° ENE 20:45:29 49° ENE
Cosmos 1076 Rocket 3.9 20:42:43 10° NNW 20:46:56 58° W 20:47:02 57° WSW
Cosmos 1980 Rocket 3.3 20:42:08 10° NNW 20:47:03 30° NE 20:47:51 29° ENE
STARLINK-1216 4.1 20:43:20 10° WNW 20:46:43 58° WNW 20:46:43 58° WNW
Cosmos 1892 3.3 20:43:43 10° NNW 20:46:56 55° NW 20:46:56 55° NW
Cosmos 2058 3.4 20:43:38 10° NNW 20:47:32 56° W 20:47:32 56° W
Cosmos 1656 3.5 20:44:31 10° NNW 20:50:15 78° ENE 20:50:46 71° ESE
Cosmos 489 Rocket 4.4 20:44:28 10° NNW 20:50:42 71° ENE 20:51:35 62° ESE
ASTEX 1 4.4 20:52:09 34° NE 20:52:09 34° NE 20:55:50 10° N
STARLINK-1237 4.3 20:48:18 10° WNW 20:51:29 51° WNW 20:51:29 51° WNW
Cosmos 1821 Rocket 4.0 20:48:13 10° N 20:54:33 62° ENE 20:55:14 59° ESE
Landsat 7 4.3 20:54:44 48° SW 20:55:18 51° W 20:59:58 10° NNW
SL-08 R/B 4.4 20:49:26 10° N 20:55:36 84° W 20:56:51 60° S
Cosmos 468 Rocket 4.0 20:50:28 10° NNW 20:55:38 70° WSW 20:55:54 68° SW
RESURS DK-1 3.3 20:51:42 10° NNW 20:54:51 44° N 20:54:51 44° N
Cosmos 1570 Rocket 4.0 20:50:28 10° NNW 20:55:51 71° ENE 20:55:52 71° ENE
ERBS 4.5 20:56:20 10° WNW 20:57:54 25° WNW 20:57:54 25° WNW
Cosmos 1825 3.8 20:56:40 10° N 20:58:48 31° N 20:58:48 31° N
Cosmos 1934 Rocket 4.4 20:55:10 10° N 21:01:10 44° ENE 21:01:14 44° ENE
ATLAS 5 CENTAUR R/B 3.0 20:59:23 10° WSW 21:03:26 39° NW 21:08:02 10° NNE
SL-4 R/B 4.0 21:02:42 10° W 21:03:55 20° WNW 21:03:55 20° WNW
CZ-4C R/B 3.3 21:00:31 10° NW 21:07:13 51° NE 21:09:33 40° E
ERS-1 Rocket 3.2 21:07:29 60° WSW 21:07:38 60° WSW 21:12:38 10° NNW
Cosmos-2242 4.1 21:09:13 39° NNE 21:09:13 39° NNE 21:12:01 10° N
Cosmos 2278 4.1 21:06:47 10° NNW 21:12:16 50° NE 21:12:16 50° NE
Cosmos 2082 Rocket 4.0 21:18:46 19° ENE 21:18:46 19° ENE 21:20:32 10° NE
SPOT 5 3.7 21:25:07 40° WNW 21:25:07 40° WNW 21:28:26 10° NNW
Cosmos 1833 Rocket 3.7 21:30:50 35° NE 21:30:50 35° NE 21:34:09 10° NE
Cosmos 1741 Rocket 4.4 21:31:20 60° WNW 21:31:28 60° WNW 21:36:46 10° NNE
COSMOS 2406 3.3 21:33:22 71° N 21:33:22 71° N 21:38:30 10° NNE
Cosmos 2208 Rocket 4.4 21:29:06 10° NNW 21:33:28 58° WNW 21:33:28 58° WNW
Terra 2.8 21:38:11 44° WNW 21:38:11 44° WNW 21:41:56 10° NNW
Mayak 0.8 21:37:32 10° NNE 21:39:11 23° NNE 21:39:11 23° NNE
Meteor 2-10 Rocket 4.2 21:47:59 50° WNW 21:47:59 50° WNW 21:53:02 10° N
ATLAS CENTAUR R/B 3.7 21:48:55 10° NW 21:50:15 20° NW 21:50:15 20° NW
Cosmos 2369 4.2 21:48:19 10° NNW 21:52:55 54° WNW 21:52:55 54° WNW
Cosmos 1697 Rocket 3.5 21:57:04 10° NW 22:01:28 46° WNW 22:01:28 46° WNW
USA 234 3.7 22:01:16 10° NE 22:07:40 59° NNW 22:14:03 10° W
BREEZE M DEB (TANK) 4.4 22:09:00 10° W 22:14:24 86° N 22:36:46 10° E
SL-16 R/B 3.2 22:13:41 10° NNW 22:18:17 41° NNE 22:18:17 41° NNE
Cosmos 2360 Rocket 3.8 22:19:07 10° N 22:23:46 25° NE 22:24:01 25° NE
Cosmos 2322 Rocket 3.2 22:22:52 10° NNW 22:27:20 40° NNE 22:27:20 40° NNE
Cosmos 1727 Rocket 4.5 22:32:39 55° NNE 22:32:39 55° NNE 22:37:36 10° NNE
Cosmos 1980 Rocket 3.2 22:25:54 10° NW 22:29:37 40° NW 22:29:37 40° NW
Cosmos 2100 Rocket 4.4 22:41:47 10° N 22:46:45 57° NNE 22:46:45 57° NNE
CZ-4C R/B 3.4 22:49:02 10° NW 22:54:43 50° W 22:54:43 50° W
Cosmos 2173 Rocket 4.5 22:52:36 10° N 22:57:19 55° N 22:57:19 55° N
Cosmos 2082 Rocket 3.2 23:00:34 43° NNW 23:00:34 43° NNW 23:04:59 10° NNE
Cosmos 2344 4.4 22:57:45 10° NW 23:07:19 64° WSW 23:08:35 61° SSW
Cosmos 1833 Rocket 4.2 23:12:28 29° NW 23:12:54 29° NW 23:17:48 10° NNE
Mayak 1.7 23:14:51 10° NNW 23:15:45 12° NW 23:15:45 12° NW
Cosmos 2219 Rocket 3.9 23:18:16 10° NNW 23:22:56 26° NE 23:23:43 25° ENE
COSMOS 2428 4.1 23:34:45 10° NNW 23:39:50 32° NE 23:40:23 31° ENE
USA 234 4.2 23:44:00 10° ENE 23:50:05 43° N 23:56:11 10° WNW
MOS 1-B Rocket 4.5 23:44:14 10° N 23:49:35 59° NW 23:49:35 59° NW
